New York, NY

11:50 PM EST on November 19, 2019 (GMT -0500)
La Guardia

Weather History for KLGA - August, 2019

Change the Weather History Date:

Wednesday, August 21, 2019

  Actual Average Record
Temperature  
Mean Temperature 85 °F 76 °F  
Max Temperature 91 °F 83 °F 97 °F (1955)
Min Temperature 78 °F 69 °F 57 °F (1977)
Degree Days  
Heating Degree Days 0 0  
Month to date heating degree days 0 0  
Since 1 June heating degree days 4 16  
Since 1 July heating degree days 0 0  
Cooling Degree Days 20 11  
Month to date cooling degree days 312 251  
Year to date cooling degree days 1137 933  
Since 1 June cooling degree days 1075 867  
Growing Degree Days 34 (Base 50)    
Moisture  
Dew Point 71 °F    
Average Humidity 66    
Maximum Humidity 85    
Minimum Humidity 47    
Precipitation  
Precipitation 0.35 in 0.13 in 1.24 in (2014)
Month to date precipitation 1.80 2.91  
Year to date precipitation 34.50 29.04  
Snow  
Snow 0.00 in 0.00 in - ()
Month to date snowfall 0.0 0.0  
Since 1 July snowfall 0.0 0.0  
Snow Depth 0.00 in    
Sea Level Pressure  
Sea Level Pressure 29.91 in    
Wind  
Wind Speed 8 mph (SSW)    
Max Wind Speed 20 mph    
Max Gust Speed 26 mph    
Visibility 9 miles    
Events Rain , Thunderstorm    
T = Trace of Precipitation, MM = Missing Value Source: NWS Daily Summary

Daily Weather History Graph

Daily Weather History Graph

Search for Another Location

Airport or City:

Astronomy

Aug. 21, 2019 Rise Set
Actual Time 6:11 AM EDT 7:45 PM EDT
Civil Twilight 5:42 AM EDT 8:14 PM EDT
Nautical Twilight 5:07 AM EDT 8:48 PM EDT
Astronomical Twilight 4:30 AM EDT 9:25 PM EDT
Moon 10:59 PM EDT (8/21) 11:46 AM EDT (8/21)
Length of Visible Light 14h 31m
Length of Day
13h 33m
Waning Gibbous, 69% of the Moon is Illuminated
Aug 21
Waning Gibbous
Aug 23
Last Quarter
Aug 30
New
Sep 5
First Quarter
Sep 14
Full

Hourly Weather History & Observations

Time (EDT) Temp. Heat Index Dew Point Humidity Pressure Visibility Wind Dir Wind Speed Gust Speed Precip Events Conditions
12:51 AM 79.0 °F - 71.1 °F 77% 30.03 in 10.0 mi South 6.9 mph - N/A   Scattered Clouds
1:51 AM 78.1 °F - 72.0 °F 81% 30.03 in 10.0 mi South 10.4 mph - N/A   Scattered Clouds
2:51 AM 78.1 °F - 72.0 °F 81% 30.01 in 10.0 mi SSW 9.2 mph - N/A   Scattered Clouds
3:45 AM 78.8 °F - 71.6 °F 78% 30.00 in 10.0 mi South 6.9 mph - N/A   Mostly Cloudy
3:51 AM 78.1 °F - 73.0 °F 84% 30.00 in 10.0 mi South 5.8 mph - N/A   Mostly Cloudy
4:51 AM 78.1 °F - 72.0 °F 81% 29.97 in 10.0 mi South 3.5 mph - N/A   Scattered Clouds
5:51 AM 78.1 °F - 72.0 °F 81% 29.96 in 10.0 mi South 8.1 mph - N/A   Mostly Cloudy
6:51 AM 78.1 °F - 73.0 °F 84% 29.97 in 7.0 mi SSW 3.5 mph - N/A   Mostly Cloudy
7:51 AM 79.0 °F - 72.0 °F 79% 29.97 in 8.0 mi South 5.8 mph - N/A   Mostly Cloudy
9:51 AM 82.9 °F 87.5 °F 71.1 °F 67% 29.95 in 10.0 mi South 9.2 mph - N/A   Mostly Cloudy
10:51 AM 86.0 °F 88.2 °F 66.0 °F 51% 29.93 in 10.0 mi SSW 12.7 mph 19.6 mph N/A   Mostly Cloudy
11:51 AM 87.1 °F 90.6 °F 68.0 °F 53% 29.93 in 10.0 mi SW 12.7 mph 20.7 mph N/A   Overcast
12:51 PM 86.0 °F 90.7 °F 70.0 °F 59% 29.91 in 10.0 mi SW 13.8 mph - N/A   Mostly Cloudy
1:51 PM 88.0 °F 92.1 °F 69.1 °F 53% 29.88 in 10.0 mi SW 9.2 mph - N/A   Mostly Cloudy
2:51 PM 89.1 °F 92.9 °F 68.0 °F 50% 29.86 in 10.0 mi SSW 12.7 mph - N/A   Mostly Cloudy
3:51 PM 88.0 °F 93.8 °F 71.1 °F 57% 29.85 in 10.0 mi SSE 13.8 mph 20.7 mph N/A   Mostly Cloudy
4:51 PM 90.0 °F 92.8 °F 66.9 °F 46% 29.84 in 10.0 mi SW 11.5 mph 20.7 mph N/A   Mostly Cloudy
5:47 PM 82.4 °F 88.2 °F 73.4 °F 74% 29.83 in 0.2 mi SW 8.1 mph 25.3 mph 0.07 in Rain , Thunderstorm Heavy Thunderstorms and Rain
5:51 PM 82.9 °F 88.0 °F 72.0 °F 69% 29.84 in 0.2 mi Variable 6.9 mph 25.3 mph 0.22 in Rain , Thunderstorm Thunderstorms and Rain
5:54 PM 82.9 °F 88.0 °F 72.0 °F 69% 29.84 in 5.0 mi Variable 4.6 mph 25.3 mph 0.01 in Rain , Thunderstorm Thunderstorms and Rain
6:41 PM 79.0 °F - 70.0 °F 74% 29.85 in 10.0 mi SSW 9.2 mph - 0.13 in   Mostly Cloudy
6:51 PM 80.1 °F 83.2 °F 70.0 °F 71% 29.85 in 10.0 mi SW 6.9 mph - 0.13 in   Mostly Cloudy
7:51 PM 80.1 °F 83.2 °F 70.0 °F 71% 29.86 in 10.0 mi South 9.2 mph - N/A   Mostly Cloudy
8:51 PM 79.0 °F - 71.1 °F 77% 29.86 in 10.0 mi South 5.8 mph - N/A   Scattered Clouds
9:51 PM 80.1 °F 83.8 °F 72.0 °F 76% 29.87 in 10.0 mi SSW 4.6 mph - N/A   Mostly Cloudy
10:51 PM 81.0 °F 84.9 °F 71.1 °F 72% 29.86 in 10.0 mi SSW 8.1 mph - N/A   Partly Cloudy
11:51 PM 80.1 °F 83.6 °F 71.1 °F 74% 29.87 in 10.0 mi SW 8.1 mph - N/A   Mostly Cloudy